Regional Weather Roundup
Issued by NWS

Home | Current Version | Previous Version | Graphics & Text | Print | Product List | Glossary On
Versions: 1 2 3 4 5 6 7 8 9 10 11 12 13 14 15 16 17 18 19 20 21 22 23 24 25 26 27 28 29 30 31 32 33 34 35 36 37 38 39 40 41 42 43 44 45 46 47 48 49 50
000
ASUS44 KMEG 221710
RWRTN
TENNESSEE HOURLY STATE WEATHER ROUNDUP
NATIONAL WEATHER SERVICE MEMPHIS TN
1200 PM CDT FRI AUG 22 2014

TNZ002-004-019-021-049-052-054-088>092-221800-
WEST TENNESSEE

CITY           SKY/WX    TMP DP  RH WIND       PRES   REMARKS
MEMPHIS INTL   MOSUNNY   92  73  53 VRB7      30.08F HX 100
NWS MEMPHIS      N/A     90 N/A N/A MISG        N/A
JACKSON        SUNNY     89  76  65 SW6       30.08F HX 100
DYERSBURG      MOSUNNY   91  70  49 SW7       30.07F HX  97
UNION CITY     MOSUNNY   88  75  66 SW7       30.05F HX  97
PARIS          SUNNY     88  73  62 SW8       30.08F HX  96
HUNTINGDON     MOSUNNY   88  75  65 W7        30.08F HX  97
LEXINGTON      SUNNY     90  75  62 S6        30.08F HX 100
SAVANNAH       SUNNY     90  75  62 NW6       30.10F HX 100
$$

TNZ008-025-027-028-033-062-065-066-221800-
NORTH MIDDLE TENNESSEE

CITY           SKY/WX    TMP DP  RH WIND       PRES   REMARKS
NASHVILLE      PTSUNNY   90  74  59 W7        30.09F HX  99
DICKSON        MOSUNNY   88  73  62 VRB7      30.10F HX  96
PORTLAND       CLOUDY    86  73  66 W7        30.08F HX  93
CLARKSVILLE    PTSUNNY   88  74  63 NW8       30.07F HX  96
LEBANON        CLOUDY    87  73  62 NW7       30.08F HX  94
SMYRNA         MOSUNNY   90  75  61 NW7       30.09F HX 100
MURFREESBORO   MOSUNNY   88  71  56 NW9       30.09F HX  93
COOKEVILLE     PTSUNNY   88  75  66 NW5       30.12F HX  97
GALLATIN       PTSUNNY   89  76  65 VRB5      30.10S HX 100
CROSSVILLE     PTSUNNY   84  70  62 W8        30.17F
$$

TNZ061-075-076-078-094-096-097-221800-
SOUTH MIDDLE TENNESSEE

CITY           SKY/WX    TMP DP  RH WIND       PRES   REMARKS
LEWISBURG      MOSUNNY   91  72  53 VRB6      30.10F HX  98
FAYETTEVILLE   MOSUNNY   88  72  58 W6        30.12F HX  94
TULLAHOMA      MOSUNNY   88  72  58 NW9       30.14F HX  94
WINCHESTER     SUNNY     88  73  62 VRB5      30.13F HX  96
MCMINNVILLE    SUNNY     88  75  66 W7        30.13S HX  97
COLUMBIA       MOSUNNY   91  75  59 W9        30.09F HX 102
SHELBYVILLE    MOSUNNY   91  75  59 W7        30.12F HX 102
$$

TNZ017-018-042-046-047-221800-
NORTHEAST TENNESSEE

CITY           SKY/WX    TMP DP  RH WIND       PRES   REMARKS
TRI CITIES     PTSUNNY   82  71  69 SW7       30.12F
ELIZABETHTON   MOSUNNY   81  72  74 CALM      30.13F
$$

TNZ012-013-036-069-073-074-221800-
CENTRAL EAST TENNESSEE

CITY           SKY/WX    TMP DP  RH WIND       PRES   REMARKS
KNOXVILLE      PTSUNNY   86  73  65 W7        30.10F HX  93
OAK RIDGE      MOSUNNY   88  72  58 VRB7      30.12F HX  94
GATLINBURG     MOSUNNY   90  72  55 SW12      30.10F HX  96
MORRISTOWN     SUNNY     86  73  66 W9        30.13F HX  93
$$

TNZ083-085-099-221800-
SOUTHEAST TENNESSEE

CITY           SKY/WX    TMP DP  RH WIND       PRES   REMARKS
CHATTANOOGA    PTSUNNY   90  70  51 W9        30.11F HX  95
$$

SKY/WX REPORTED AS FAIR MEANS FEW OR NO CLOUDS BELOW
12 THOUSAND FEET.



USA.gov is the U.S. government's official web portal to all federal, state and local government web resources and services.